sat.trackr.live / text

‹ back to catalog

STARLINK-31604

NORAD 59214 · 2024-046P

PAYLOAD ACTIVE UNKNOWN

§ Identity

Operator
Country
US
Launch date
2024-03-11
Launch site
AFWTR
Launch vehicle
Mass (kg)
RCS (m²)

Purposes: comms

External: N2YO · Heavens-Above · Gunter

§ Orbital elements

Epoch: 2026-05-25T01:09:24.936192Z

Period
93.85 min
Inclination
53.1601°
Eccentricity
0.0001225
Mean motion
15.34392272 rev/d
Perigee alt
461.9 km
Apogee alt
463.6 km
Semi-major
6,840.9 km
B*
4.0207e-5
RAAN
159.7202°
Arg perigee
75.4067°
Mean anomaly
284.7071°
Rev number
12,474

§ Raw data

STARLINK-316041 59214U 24046P   26145.04820528  .00000982  00000+0  40207-4 0  99992 59214  53.1601 159.7202 0001225  75.4067 284.7071 15.34392272124749

JSON: /api/v1/satellites/59214 · /tle

For live sub-satellite position, see the globe view (requires WebGL).

§ Visibility from observer

Set your observer location to see the next 7 days of passes ≥ 10°. The values pass through the URL so the page stays shareable.

No JS? Fill the form by hand. The geolocation button needs JavaScript.